Home   Weather   Weno   Past weeks
Flag for Micronesia

Past Weather in Weno, Truk, Micronesia — Yesterday and Last 2 Weeks

Now
78 °F

Mostly cloudy.


Feels Like: 81 °F
Forecast: 86 / 80 °F
Wind: 6 mph from North

Location: Truk Intl / Moen Island

Current Time: Mar 24, 2019 at 5:27:09 am

Latest Report: Mar 24, 2019 at 4:50 am


Visibility: 14 mi

Pressure: 29.77 "Hg

Humidity: 95%

Dew Point: 76 °F

Location of WenoLocation

Past Weather in Weno — Graph

°F

Weno Temperature Yesterday

Maximum temperature yesterday: 87 °F (at 1:50 pm)
Minimum temperature yesterday: 79 °F (at 12:52 am)
Average temperature yesterday: 82 °F

High & Low Weather Summary for the Past Weeks

 TemperatureHumidityPressure
High88 °F (Mar 22, 11:50 am)100% (Mar 14, 1:23 pm)29.89 "Hg (Mar 14, 1:23 pm)
Low74 °F (Mar 21, 3:54 am)68% (Mar 15, 10:50 am)29.71 "Hg (Mar 18, 2:50 pm)
Average81 °F86%29.79 "Hg
* Reported Mar 9 3:51 am — Mar 24 3:50 am, Weno. Weather by CustomWeather, © 2019

Note: Actual official high and low records may vary slightly from our data, if they occured in-between our weather recording intervals... More about our weather records

Advertising

Weno Weather History for the Previous 24 Hours

Scroll right to see more
 ConditionsComfort  
Time TempWeatherWind HumidityBarometerVisibility
3:50 am
Sun, Mar 24
78 °FMostly cloudy.6 mph95%29.76 "Hg13 mi
2:53 am78 °FSprinkles. Mostly cloudy.6 mph95%29.76 "Hg12 mi
1:50 am79 °FOvercast.6 mph96%29.78 "Hg15 mi
12:50 am81 °FMostly cloudy.3 mph88%29.79 "Hg15 mi
11:51 pm
Sat, Mar 23
81 °FMostly cloudy.5 mph92%29.81 "Hg15 mi
10:54 pm81 °FMostly cloudy.3 mph92%29.83 "Hg15 mi
9:50 pm81 °FMostly cloudy.5 mph96%29.83 "Hg15 mi
8:52 pm82 °FPassing clouds.6 mph92%29.82 "Hg15 mi
7:51 pm82 °FPassing clouds.3 mph77%29.81 "Hg15 mi
6:50 pm82 °FPassing clouds.3 mph79%29.78 "Hg15 mi
5:50 pm83 °FMore clouds than sun.3 mph82%29.76 "Hg15 mi
4:50 pm83 °FCloudy.6 mph86%29.74 "Hg15 mi
3:50 pm86 °FMore clouds than sun.5 mph78%29.74 "Hg15 mi
2:51 pm86 °FMore clouds than sun.8 mph83%29.73 "Hg15 mi
1:50 pm87 °FBroken clouds.9 mph79%29.74 "Hg15 mi
12:50 pm87 °FBroken clouds.8 mph80%29.75 "Hg15 mi
11:50 am84 °FCloudy.6 mph88%29.79 "Hg14 mi
10:51 am83 °FMore clouds than sun.6 mph87%29.81 "Hg14 mi
9:50 am82 °FSprinkles. More clouds than sun.3 mph88%29.83 "Hg13 mi
8:50 am79 °FSprinkles. More clouds than sun.3 mph94%29.83 "Hg14 mi
6:50 am79 °FSprinkles. Cloudy.6 mph91%29.80 "Hg14 mi
5:50 am80 °FOvercast.6 mph92%29.78 "Hg15 mi
Weather by CustomWeather, © 2019

See weather overview